Weather Roundup
Issued by NWS Chicago, IL

Home | Current Version | Previous Version | Text Only | Print | Product List | Glossary On
Versions: 1 2 3 4 5 6 7 8 9 10 11 12 13 14 15 16 17 18 19 20 21 22 23 24 25 26 27 28 29 30 31 32 33 34 35 36 37 38 39 40 41 42 43 44 45 46 47 48 49 50
000
NZUS59 KLOT 260821
HRRLOT

CHICAGO AREA WEATHER ROUNDUP
NATIONAL WEATHER SERVICE CHICAGO/ROMEOVILLE IL
300 AM CDT TUE MAY 26 2015

NOTE: "FAIR" INDICATES FEW OR NO CLOUDS BELOW 12,000 FEET WITH NO
SIGNIFICANT WEATHER AND/OR OBSTRUCTIONS TO VISIBILITY.

* THESE STATIONS ARE NOT UNDER NWS QUALITY CONTROL. THEY ALSO MAY NOT
  REPORT WEATHER SUCH AS PRECIPITATION OR FOG.

ILZ005-006-012>014-019>023-260900-
NORTHEAST ILLINOIS

CITY           SKY/WX    TMP DP  RH WIND       PRES   REMARKS
OHARE          PTCLDY    68  64  87 S9        29.92F
MIDWAY         PTCLDY    70  65  84 S12       29.93S
AURORA         CLEAR     65  61  87 S7        29.93S
LANSING*       PTCLDY    66  63  87 S9        29.95F
JOLIET*        PTCLDY    69  66  91 S6        29.94S
WAUKEGAN       PTCLDY    67  62  84 S7        29.91F
DUPAGE AIRPORT PTCLDY    67  64  90 S10       29.93S
WHEELING       PTCLDY    69  63  81 S9        29.93F
KANKAKEE*      CLEAR     66  65  94 S9        29.96F
MORRIS*        CLEAR     66  64  91 S6        29.92S
LEWIS AIRPORT* PTCLDY    67  64  89 S12       29.94S
NORTHERLY IS     N/A     70  63  78 S13         N/A
$$

WIZ051-052-058>065-066-070>072-260900-
SOUTHEAST WISCONSIN

CITY           SKY/WX    TMP DP  RH WIND       PRES   REMARKS
MILWAUKEE      PTCLDY    67  60  78 S8        29.91S
KENOSHA*       PTCLDY    67  61  81 S7        29.91F
RACINE*        PTCLDY    68  59  73 SW9       29.93S
BURLINGTON     CLEAR     63  60  87 S7        29.91F
WAUKESHA       CLEAR     63  59  88 S5        29.92S
WEST BEND      CLEAR     64  59  82 S6        29.89S
$$

INZ001>003-010>013-019-020-260900-
NORTHWEST INDIANA

CITY           SKY/WX    TMP DP  RH WIND       PRES   REMARKS
GARY*          PTCLDY    70  66  88 S6        29.95S
MICHIGAN CITY* NOT AVBL
RENSSELAER*    NOT AVBL
VALPARAISO     PTCLDY    65  63  93 S8        29.97F
$$

LMZ740>746-260900-
SOUTHERN LAKE MICHIGAN

STATION/POSITION TIME  SKY/WX   TEMP WIND        PRES    VSBY
                                AIR  DIR/SP/G
                 (UTC)          (F)  (DEG/KT/KT) (MB)    (MI)
HARRISON CRIB    0800            69  190/ 17/ 19   N/A
BURNHAM HARBOR   0800            69  200/  7/ 15   N/A
CALUMET HARBOR   0700            70  180/ 11/ 17   N/A
BURNS HARBOR     0700            69  190/  9/ 13 1015.2S
MICHIGAN CITY    0800            67  150/ 10/ 14   N/A
$$

ABBREVIATIONS USED IN REMARKS
   TC - TEMPERATURE IN CELSIUS
  WCI - WIND CHILL INDEX
   HX - HEAT INDEX
  VSB - VISIBILITY
$$



USA.gov is the U.S. government's official web portal to all federal, state and local government web resources and services.